| time (UTC) | temp C | wind direction | speed KPH | gust KPH | rain 1hr cm | rain 24hr cm | rain mn cm | humidity % | barometer mb |
| 20260504100104 | 10 | 214 | 0.0 | 1.6 | 0.00 | 0.00 | 0.00 | 59 | 1001.7 |
| 20260504081547 | 11 | 240 | 0.0 | 3.2 | 0.00 | 0.00 | 0.00 | 53 | 1002.7 |
| 20260504050016 | 12 | 238 | 0.0 | 0.0 | 0.00 | 0.00 | 0.00 | 52 | 1005.1 |
| 20260504044514 | 12 | 225 | 0.0 | 1.6 | 0.00 | 0.00 | 0.00 | 49 | 1005.4 |
| 20260504043011 | 12 | 285 | 0.0 | 1.6 | 0.00 | 0.00 | 0.00 | 50 | 1005.7 |
| 20260504041508 | 12 | 225 | 0.0 | 1.6 | 0.00 | 0.00 | 0.00 | 49 | 1005.8 |
| 20260504040008 | 13 | 257 | 0.0 | 1.6 | 0.00 | 0.00 | 0.00 | 47 | 1006.1 |
| 20260504034507 | 14 | 287 | 0.0 | 1.6 | 0.00 | 0.00 | 0.00 | 45 | 1006.3 |
| 20260504033003 | 14 | 238 | 0.0 | 1.6 | 0.00 | 0.00 | 0.00 | 44 | 1006.5 |
| 20260504031503 | 15 | 291 | 0.0 | 1.6 | 0.00 | 0.00 | 0.00 | 43 | 1006.7 |
| 20260504030002 | 15 | 248 | 0.0 | 1.6 | 0.00 | 0.00 | 0.00 | 42 | 1006.7 |
| 20260504024502 | 16 | 288 | 0.0 | 1.6 | 0.00 | 0.00 | 0.00 | 39 | 1006.8 |
| 20260504023103 | 16 | 278 | 0.0 | 1.6 | 0.00 | 0.00 | 0.00 | 39 | 1006.7 |
| 20260504021608 | 16 | 277 | 0.0 | 1.6 | 0.00 | 0.00 | 0.00 | 37 | 1006.8 |
| 20260504020059 | 17 | 285 | 0.0 | 1.6 | 0.00 | 0.00 | 0.00 | 36 | 1006.7 |
| 20260504014558 | 18 | 273 | 0.0 | 1.6 | 0.00 | 0.00 | 0.00 | 35 | 1006.6 |
| 20260504013056 | 19 | 285 | 0.0 | 1.6 | 0.00 | 0.00 | 0.00 | 33 | 1006.5 |
| 20260504011557 | 20 | 293 | 0.0 | 1.6 | 0.00 | 0.00 | 0.00 | 30 | 1006.5 |
| 20260504010056 | 21 | 279 | 0.0 | 1.6 | 0.00 | 0.00 | 0.00 | 27 | 1006.5 |
| 20260504004555 | 21 | 293 | 0.0 | 1.6 | 0.00 | 0.00 | 0.00 | 25 | 1006.6 |
| 20260504003054 | 21 | 290 | 0.0 | 14.5 | 0.00 | 0.00 | 0.00 | 24 | 1006.6 |
| 20260504001553 | 22 | 282 | 8.0 | 14.5 | 0.00 | 0.00 | 0.00 | 25 | 1006.7 |
| 20260504000127 | 22 | 282 | 0.0 | 1.6 | 0.00 | 0.00 | 0.00 | 25 | 1006.9 |
| 20260503234550 | 22 | 301 | 8.0 | 20.9 | 0.00 | 0.00 | 0.00 | 25 | 1006.9 |
| 20260503233047 | 22 | 307 | 0.0 | 1.6 | 0.00 | 0.00 | 0.00 | 27 | 1007.0 |
| 20260503231547 | 22 | 324 | 0.0 | 3.2 | 0.00 | 0.00 | 0.00 | 27 | 1007.1 |
| 20260503230054 | 22 | 342 | 0.0 | 1.6 | 0.00 | 0.00 | 0.00 | 28 | 1007.2 |
| 20260503224543 | 22 | 298 | 0.0 | 3.2 | 0.00 | 0.00 | 0.00 | 27 | 1007.2 |
| 20260503223041 | 22 | 291 | 0.0 | 1.6 | 0.00 | 0.00 | 0.00 | 30 | 1007.4 |
| 20260503221540 | 22 | 256 | 0.0 | 1.6 | 0.00 | 0.00 | 0.00 | 30 | 1007.6 |
| 20260503220037 | 22 | 338 | 0.0 | 3.2 | 0.00 | 0.00 | 0.00 | 28 | 1007.7 |
| 20260503214534 | 22 | 321 | 0.0 | 6.4 | 0.00 | 0.00 | 0.00 | 28 | 1007.8 |
| 20260503213033 | 22 | 300 | 0.0 | 3.2 | 0.00 | 0.00 | 0.00 | 29 | 1007.8 |
| 20260503211531 | 21 | 340 | 0.0 | 17.7 | 0.00 | 0.00 | 0.00 | 28 | 1008.1 |
| 20260503210031 | 21 | 306 | 0.0 | 1.6 | 0.00 | 0.00 | 0.00 | 31 | 1008.3 |
| 20260503204530 | 21 | 297 | 0.0 | 1.6 | 0.00 | 0.00 | 0.00 | 30 | 1008.5 |
| 20260503203035 | 21 | 305 | 9.7 | 20.9 | 0.00 | 0.00 | 0.00 | 30 | 1008.6 |
| 20260503201526 | 21 | 315 | 9.7 | 20.9 | 0.00 | 0.00 | 0.00 | 30 | 1008.7 |
| 20260503200026 | 21 | 304 | 0.0 | 20.9 | 0.00 | 0.00 | 0.00 | 31 | 1008.9 |
| 20260503194524 | 21 | 342 | 11.3 | 24.1 | 0.00 | 0.00 | 0.00 | 31 | 1008.9 |
| 20260503193024 | 21 | 315 | 11.3 | 20.9 | 0.00 | 0.00 | 0.00 | 29 | 1008.9 |
| 20260503191523 | 21 | 314 | 0.0 | 22.5 | 0.00 | 0.00 | 0.00 | 31 | 1008.9 |
| 20260503190024 | 21 | 342 | 0.0 | 14.5 | 0.00 | 0.00 | 0.00 | 33 | 1009.0 |
| 20260503184520 | 21 | 333 | 1.6 | 20.9 | 0.00 | 0.00 | 0.00 | 31 | 1009.1 |
| 20260503183021 | 21 | 350 | 4.8 | 17.7 | 0.00 | 0.00 | 0.00 | 32 | 1009.1 |
| 20260503181516 | 21 | 21 | 3.2 | 17.7 | 0.00 | 0.00 | 0.00 | 33 | 1009.2 |
| 20260503180017 | 20 | 340 | 1.6 | 25.7 | 0.00 | 0.00 | 0.00 | 33 | 1009.4 |
| 20260503174515 | 20 | 324 | 0.0 | 1.6 | 0.00 | 0.00 | 0.00 | 32 | 1009.6 |
| 20260503173011 | 20 | 326 | 0.0 | 29.0 | 0.00 | 0.00 | 0.00 | 32 | 1009.8 |
| 20260503171510 | 20 | 328 | 12.9 | 24.1 | 0.00 | 0.00 | 0.00 | 35 | 1009.8 |